Total_Precipitation_Accumulation
0.08 0.08 0.07 0.05 0.03 0.03 0.03 0.04 0.08 0.19 0.37 0.59 0.70 0.79 0.92 1.09 1.08 0.88 0.64 0.47 0.39 0.35 0.33 0.29 0.26 0.21 0.17 0.14 0.12 0.10 0.09 0.08 0.08 0.08 0.07 0.08 0.07 0.06 0.06 0.05 0.04 0.03 0.02 0.01
0.05 0.06 0.09 0.11 0.11 0.11 0.13 0.16 0.24 0.34 0.56 0.79 0.96 1.04 1.03 1.02 1.02 0.91 0.72 0.57 0.47 0.42 0.38 0.37 0.36 0.33 0.31 0.29 0.25 0.21 0.19 0.17 0.16 0.14 0.13 0.12 0.10 0.08 0.06 0.04 0.02 0.01 0.00 0.00
0.06 0.08 0.10 0.19 0.25 0.18 0.20 0.28 0.35 0.43 0.60 0.71 0.79 0.86 0.92 0.97 0.99 0.93 0.78 0.64 0.56 0.55 0.54 0.54 0.54 0.52 0.48 0.41 0.33 0.27 0.24 0.21 0.18 0.15 0.12 0.09 0.06 0.04 0.02 0.02 0.01 0.01 0.01 0.00
0.04 0.08 0.17 0.20 0.20 0.19 0.21 0.28 0.29 0.33 0.38 0.46 0.51 0.57 0.62 0.68 0.79 0.77 0.67 0.63 0.63 0.65 0.68 0.67 0.61 0.51 0.40 0.30 0.24 0.21 0.18 0.15 0.12 0.09 0.06 0.04 0.02 0.01 0.02 0.02 0.02 0.02 0.02 0.01
0.06 0.13 0.21 0.26 0.16 0.14 0.23 0.31 0.26 0.26 0.24 0.24 0.25 0.27 0.29 0.34 0.41 0.47 0.49 0.52 0.57 0.60 0.63 0.60 0.50 0.37 0.27 0.20 0.16 0.13 0.12 0.09 0.06 0.04 0.03 0.02 0.02 0.02 0.02 0.03 0.03 0.02 0.01 0.01
0.09 0.18 0.26 0.30 0.11 0.07 0.17 0.38 0.35 0.32 0.29 0.29 0.32 0.33 0.25 0.23 0.27 0.31 0.37 0.44 0.50 0.51 0.48 0.42 0.32 0.22 0.17 0.14 0.12 0.11 0.09 0.06 0.04 0.03 0.02 0.02 0.02 0.02 0.02 0.03 0.03 0.03 0.02 0.02
0.16 0.25 0.32 0.14 0.05 0.11 0.28 0.39 0.40 0.34 0.32 0.35 0.36 0.32 0.22 0.18 0.22 0.28 0.35 0.40 0.40 0.36 0.32 0.25 0.18 0.14 0.14 0.12 0.10 0.08 0.06 0.05 0.04 0.03 0.02 0.02 0.03 0.03 0.03 0.03 0.04 0.04 0.04 0.05
0.25 0.32 0.36 0.12 0.08 0.20 0.28 0.27 0.26 0.23 0.23 0.20 0.17 0.17 0.15 0.13 0.16 0.21 0.27 0.30 0.28 0.24 0.19 0.14 0.12 0.12 0.11 0.09 0.07 0.06 0.07 0.07 0.05 0.04 0.02 0.02 0.04 0.05 0.04 0.05 0.05 0.06 0.06 0.07
0.25 0.32 0.26 0.11 0.11 0.14 0.17 0.19 0.16 0.18 0.19 0.14 0.14 0.15 0.12 0.09 0.11 0.16 0.17 0.16 0.13 0.10 0.09 0.08 0.08 0.08 0.08 0.06 0.05 0.05 0.06 0.07 0.05 0.03 0.03 0.02 0.03 0.04 0.05 0.06 0.06 0.05 0.05 0.06
0.12 0.18 0.16 0.13 0.12 0.11 0.10 0.13 0.15 0.16 0.19 0.16 0.10 0.06 0.06 0.09 0.10 0.10 0.09 0.06 0.06 0.05 0.06 0.06 0.06 0.06 0.06 0.06 0.07 0.08 0.09 0.07 0.05 0.05 0.04 0.02 0.02 0.02 0.03 0.04 0.04 0.04 0.05 0.05
0.09 0.15 0.16 0.19 0.16 0.14 0.13 0.14 0.15 0.17 0.20 0.15 0.08 0.07 0.07 0.09 0.08 0.07 0.06 0.05 0.06 0.07 0.06 0.05 0.04 0.04 0.04 0.05 0.06 0.09 0.08 0.05 0.05 0.05 0.04 0.03 0.03 0.02 0.02 0.02 0.01 0.02 0.03 0.03
0.14 0.17 0.21 0.26 0.18 0.14 0.20 0.25 0.26 0.25 0.19 0.13 0.11 0.09 0.08 0.08 0.07 0.07 0.07 0.07 0.06 0.05 0.04 0.03 0.02 0.01 0.01 0.02 0.03 0.05 0.05 0.04 0.03 0.03 0.03 0.03 0.04 0.05 0.02 0.00 0.01 0.01 0.02 0.03
0.13 0.12 0.17 0.27 0.24 0.24 0.26 0.26 0.24 0.19 0.13 0.09 0.10 0.11 0.12 0.11 0.09 0.08 0.06 0.06 0.05 0.04 0.03 0.02 0.01 0.01 0.00 0.01 0.01 0.01 0.02 0.02 0.01 0.01 0.02 0.02 0.04 0.07 0.08 0.06 0.02 0.01 0.01 0.02
0.29 0.26 0.33 0.36 0.30 0.24 0.21 0.17 0.14 0.12 0.12 0.11 0.12 0.13 0.12 0.08 0.06 0.05 0.04 0.03 0.03 0.02 0.02 0.01 0.01 0.00 0.00 0.00 0.00 0.01 0.01 0.01 0.00 0.01 0.01 0.01 0.03 0.05 0.07 0.12 0.11 0.07 0.04 0.02
0.35 0.32 0.34 0.32 0.23 0.18 0.15 0.13 0.13 0.14 0.15 0.15 0.12 0.10 0.07 0.05 0.04 0.02 0.01 0.01 0.01 0.01 0.01 0.00 0.00 0.00 0.00 0.00 0.00 0.01 0.01 0.02 0.02 0.01 0.01 0.01 0.02 0.03 0.04 0.07 0.09 0.08 0.06 0.04
0.32 0.26 0.23 0.19 0.14 0.13 0.12 0.11 0.11 0.11 0.11 0.10 0.08 0.06 0.04 0.03 0.01 0.01 0.01 0.01 0.01 0.01 0.00 0.00 0.00 0.00 0.00 0.00 0.01 0.01 0.01 0.01 0.00 0.01 0.01 0.01 0.01 0.02 0.03 0.05 0.06 0.07 0.05 0.04
0.27 0.22 0.17 0.13 0.11 0.09 0.08 0.09 0.08 0.06 0.05 0.05 0.03 0.02 0.01 0.01 0.01 0.01 0.01 0.01 0.00 0.00 0.00 0.00 0.00 0.00 0.00 0.00 0.00 0.01 0.01 0.01 0.01 0.01 0.01 0.01 0.01 0.01 0.02 0.04 0.05 0.06 0.05 0.05
0.21 0.16 0.12 0.08 0.06 0.05 0.04 0.04 0.04 0.02 0.02 0.01 0.01 0.01 0.01 0.01 0.01 0.01 0.00 0.00 0.00 0.00 0.00 0.00 0.00 0.00 0.00 0.00 0.00 0.00 0.01 0.01 0.01 0.01 0.01 0.00 0.00 0.00 0.01 0.02 0.03 0.04 0.04 0.05
0.15 0.10 0.05 0.03 0.02 0.02 0.02 0.02 0.02 0.01 0.00 0.00 0.00 0.00 0.00 0.00 0.00 0.00 0.00 0.00 0.00 0.00 0.00 0.00 0.00 0.00 0.00 0.00 0.00 0.00 0.00 0.00 0.00 0.00 0.00 0.00 0.00 0.00 0.00 0.01 0.01 0.02 0.03 0.04
0.09 0.05 0.02 0.02 0.02 0.01 0.01 0.01 0.00 0.00 0.00 0.00 0.00 0.00 0.00 0.00 0.00 0.00 0.00 0.00 0.00 0.00 0.00 0.00 0.00 0.00 0.00 0.00 0.00 0.00 0.00 0.00 0.00 0.00 0.00 0.00 0.00 0.00 0.00 0.00 0.00 0.01 0.02 0.03
0.04 0.02 0.01 0.01 0.01 0.01 0.00 0.00 0.00 0.00 0.00 0.00 0.00 0.00 0.00 0.00 0.00 0.00 0.00 0.00 0.00 0.00 0.00 0.00 0.00 0.00 0.00 0.00 0.00 0.00 0.00 0.00 0.00 0.00 0.00 0.00 0.00 0.00 0.00 0.00 0.00 0.00 0.01 0.02
0.02 0.01 0.01 0.01 0.01 0.00 0.00 0.00 0.00 0.00 0.00 0.00 0.00 0.00 0.00 0.00 0.00 0.00 0.00 0.00 0.00 0.00 0.00 0.00 0.00 0.00 0.00 0.00 0.00 0.00 0.00 0.00 0.00 0.00 0.00 0.00 0.00 0.00 0.00 0.00 0.00 0.00 0.00 0.01
0.02 0.01 0.00 0.00 0.00 0.00 0.00 0.00 0.00 0.00 0.00 0.00 0.00 0.00 0.00 0.00 0.00 0.00 0.00 0.00 0.00 0.00 0.00 0.00 0.00 0.00 0.00 0.00 0.00 0.00 0.00 0.00 0.00 0.00 0.00 0.00 0.00 0.00 0.00 0.00 0.00 0.00 0.00 0.00
0.03 0.01 0.01 0.00 0.00 0.00 0.00 0.00 0.00 0.00 0.00 0.00 0.00 0.00 0.00 0.00 0.00 0.00 0.00 0.00 0.00 0.00 0.00 0.00 0.00 0.00 0.00 0.00 0.00 0.00 0.00 0.00 0.00 0.00 0.00 0.00 0.00 0.00 0.00 0.00 0.00 0.00 0.00 0.00
0.04 0.02 0.01 0.01 0.01 0.00 0.00 0.00 0.00 0.00 0.00 0.00 0.00 0.00 0.00 0.00 0.00 0.00 0.00 0.00 0.00 0.00 0.00 0.00 0.00 0.00 0.00 0.00 0.00 0.00 0.00 0.00 0.00 0.00 0.00 0.00 0.00 0.00 0.00 0.00 0.00 0.00 0.00 0.00
0.09 0.06 0.03 0.02 0.01 0.00 0.00 0.00 0.00 0.00 0.00 0.00 0.00 0.00 0.00 0.00 0.00 0.00 0.00 0.00 0.00 0.00 0.00 0.00 0.00 0.00 0.00 0.00 0.00 0.00 0.00 0.00 0.00 0.00 0.00 0.00 0.00 0.00 0.00 0.00 0.00 0.00 0.00 0.00
0.16 0.13 0.10 0.06 0.03 0.00 0.00 0.00 0.00 0.00 0.00 0.00 0.00 0.00 0.00 0.00 0.00 0.00 0.00 0.00 0.00 0.00 0.00 0.00 0.00 0.00 0.00 0.00 0.00 0.00 0.00 0.00 0.00 0.00 0.00 0.00 0.00 0.00 0.00 0.00 0.00 0.00 0.00 0.00